Location: Burkes Observatory
(44.7598°N, 69.4315°W)
Time: 02:19:45
(UTC-04:00)

Daily predictions for brighter satellites

Satellite Brightness Start Highest point End
(mag) Time Altitude Azimuth Time Altitude Azimuth Time Altitude Azimuth
ADEOS Rocket 4.5 01:52:09 10° NNE 01:55:31 35° NNE 01:55:31 35° NNE
CZ-4C R/B 4.2 02:12:43 24° NE 02:12:43 24° NE 02:15:15 10° NE
Cosmos 2297 Rocket 4.0 02:21:48 28° NE 02:21:48 28° NE 02:24:23 10° NNE
CZ-2D R/B 4.0 02:24:21 10° NNE 02:26:49 25° NE 02:26:49 25° NE
SL-16 R/B 3.7 02:47:41 35° NNW 02:47:41 35° NNW 02:51:03 10° NNW
Lacrosse 5 rocket 4.4 02:57:15 12° NNE 02:57:15 12° NNE 02:57:39 10° NE
Cosmos 1655 Rocket 4.5 03:10:06 10° N 03:16:22 57° ENE 03:18:08 43° SE
ARIANE 5 R/B 3.5 03:11:58 10° NNE 03:15:18 42° NNE 03:15:18 42° NNE
Cosmos 2227 Rocket 3.5 03:21:21 31° NNW 03:21:21 31° NNW 03:24:56 10° NNE
ADEOS II 3.9 03:23:15 10° NE 03:27:41 27° E 03:30:30 17° SE
Cosmos 2263 Rocket 4.2 03:29:39 14° SE 03:32:53 22° E 03:37:11 10° NE
DELTA 2 R/B (1) 4.5 03:38:42 38° SE 03:38:42 38° SE 03:42:48 10° E
Okean 1 Rocket 4.0 03:33:59 10° N 03:37:59 47° ENE 03:37:59 47° ENE
Cosmos 405 Rocket 4.3 03:40:58 34° NE 03:40:58 34° NE 03:43:27 10° NNE
Resurs 1-4 Rocket 3.0 03:35:42 10° N 03:39:16 37° NNW 03:39:16 37° NNW
Cosmos 2026 Rocket 4.0 03:35:53 10° NNW 03:41:07 62° NW 03:41:07 62° NW
Meteor 1-11 Rocket 4.4 03:36:59 10° NNW 03:40:42 41° NNW 03:40:42 41° NNW
Cosmos 1674 Rocket 4.2 03:53:24 48° N 03:53:24 48° N 03:56:38 10° N
Cosmos 2279 Rocket 3.8 03:56:36 61° SSW 03:57:44 79° W 04:03:58 10° N
Cosmos 407 Rocket 3.6 03:58:14 63° NW 03:58:14 63° NW 04:03:20 10° NNE
CZ-4C R/B 3.1 03:57:54 34° NW 03:58:17 34° NW 04:03:57 10° NNE
Cosmos 2297 Rocket 3.6 04:03:37 23° NW 04:03:37 23° NW 04:07:48 10° N
Cosmos 1812 3.1 04:05:46 60° E 04:05:46 60° E 04:09:28 10° NNE
CZ-2D R/B 3.3 04:04:46 10° N 04:08:08 26° NW 04:08:08 26° NW
Tiangong 1 3.7 04:12:25 14° ESE 04:12:25 14° ESE 04:12:55 10° ESE
Meteor 1-27 Rocket 4.1 04:11:03 42° WNW 04:11:03 42° WNW 04:15:53 10° N
ADEOS 4.2 04:06:28 10° N 04:10:48 38° NW 04:10:48 38° NW
Cosmos 1023 Rocket 4.4 04:10:49 52° SSW 04:12:08 84° ESE 04:17:25 10° NNE
Okean 3 3.4 04:16:53 67° NW 04:16:53 67° NW 04:20:56 10° N
Cosmos 1975 Rocket 3.6 04:17:09 22° SSE 04:19:50 57° E 04:24:11 10° NNE
Abrixas rocket 3.3 04:22:34 38° ESE 04:22:34 38° ESE 04:25:10 10° ENE
ASTEX 1 3.3 04:17:40 10° N 04:22:38 90° W 04:25:17 28° S
Cosmos 1500 3.4 04:19:17 10° N 04:23:03 68° E 04:25:48 17° SSE
Cosmos 1441 Rocket 3.4 04:26:20 52° NNW 04:26:20 52° NNW 04:29:29 10° N
Cosmos 1975 3.7 04:22:00 10° N 04:26:01 50° ENE 04:29:59 10° SSE
USA 215 4.1 04:22:01 10° E 04:28:14 49° NNE 04:34:28 10° NW
Lacrosse 5 rocket 3.5 04:32:56 13° NNW 04:34:10 14° N 04:36:20 10° NNE
Meteor 1-18 Rocket 4.4 04:31:24 10° S 04:37:19 83° E 04:43:17 10° NNE
Cosmos 1603 4.1 04:32:42 10° NW 04:37:51 37° WSW 04:43:01 10° S
Cosmos 1140 Rocket 3.5 04:36:44 38° SW 04:38:33 59° WNW 04:43:44 10° NNE
Okean 1 3.4 04:36:04 20° S 04:38:42 73° E 04:42:43 10° NNE
PSLV R/B 3.6 04:35:40 10° NNE 04:39:35 89° W 04:41:12 33° SSW
Intercosmos 25 Rocket 4.3 04:38:31 10° S 04:42:51 47° E 04:46:05 10° NNE
CZ-4B R/B 2.8 04:39:18 10° NNE 04:43:30 90° N 04:46:00 22° SSW
Cosmos 1850 Rocket 4.0 04:41:03 19° SSW 04:44:59 87° ESE 04:50:21 10° NNE
Atlas Centaur 2 3.9 04:46:12 14° SSW 04:47:56 16° S 04:50:56 10° SE
Meteor 1-31 Rocket 4.3 04:45:33 10° NNE 04:49:11 36° E 04:52:46 10° SSE
MOS 1-B 4.4 04:46:31 10° N 04:52:13 61° WNW 04:56:46 16° SW
Cosmos 1378 Rocket 4.2 04:52:25 32° W 04:53:07 34° WNW 04:57:10 10° N
ARIANE 5 R/B 4.3 04:52:56 10° NNW 04:55:29 14° WNW 04:55:38 14° WNW
Okean O Rocket 1.5 04:55:02 10° N 04:59:24 80° WNW 05:03:44 10° SSW
Meteor 1-12 Rocket 4.3 04:53:54 10° NNW 04:59:56 77° W 05:05:56 10° S
Landsat 4 3.7 04:58:54 10° SSE 05:02:43 84° ENE 05:06:34 10° NNW
PAYLOAD B 4.2 04:57:18 10° NNE 05:02:51 85° WNW 05:08:21 10° SSW
Cosmos 1943 3.4 04:57:33 10° NW 05:02:58 45° WSW 05:08:20 10° S
Cosmos 1666 3.2 05:01:01 10° N 05:04:45 60° E 05:08:30 10° SSE
IRS-1C Rocket 4.2 05:01:05 10° NNE 05:06:23 83° ESE 05:11:41 10° SSW
Cosmos 1570 Rocket 4.1 05:01:36 10° NNW 05:06:46 55° WSW 05:11:55 10° S
ADEOS II 2.5 05:02:35 10° N 05:07:32 42° WNW 05:11:27 16° SW
Cosmos 2266 Rocket 4.3 05:01:35 10° NNW 05:07:38 46° W 05:13:40 10° SSW
Gbstr 26 Del rocket 4.5 05:01:48 10° WNW 05:09:37 74° SW 05:17:42 10° SE
Cosmos 1743 2.7 05:05:46 10° N 05:09:42 89° W 05:13:36 10° S
Molniya-1 2.2 05:09:43 85° ESE 05:09:43 85° ESE 05:11:24 10° NE
Cosmos 2208 Rocket 4.1 05:06:16 10° NNW 05:11:27 55° WSW 05:16:32 10° S
SL-8 R/B 3.8 05:09:30 20° SW 05:12:48 71° SSE 05:17:35 10° ENE
Cosmos 2263 Rocket 2.3 05:11:24 13° SW 05:16:21 58° WNW 05:22:00 10° NNE
MTI 4.0 05:17:34 10° SSE 05:20:48 76° ENE 05:24:04 10° N
Cosmos 220 Rocket 4.3 05:17:31 15° SW 05:20:50 46° WNW 05:25:02 10° N
Cosmos 1437 Rocket 3.6 05:17:45 10° NNW 05:21:10 29° W 05:24:37 10° SSW
Meteor 2-11 Rocket 4.5 05:17:10 10° S 05:23:15 89° E 05:29:21 10° N
DELTA 2 R/B (1) 4.0 05:19:29 17° WSW 05:23:33 49° S 05:28:55 10° ESE
USA 116 3.1 05:20:17 10° SSE 05:23:35 89° ENE 05:26:43 10° NNW
COSMO-SKYMED 1 3.4 05:27:51 10° SSE 05:32:05 56° ENE 05:36:21 10° N
Meteor 1-28 Rocket 3.2 05:31:02 10° SSE 05:34:45 90° WSW 05:38:32 10° NNW
Meteor PRIRODA 3.9 05:33:22 10° N 05:36:55 47° WNW 05:40:28 10° SSW
TELKOM 3 2.9 05:35:16 14° SW 05:37:07 70° SSE 05:39:14 10° ENE
BREEZE-M R/B 4.4 05:35:48 11° SW 05:38:55 77° SSE 05:51:34 10° ENE
Cosmos 1814 Rocket 3.9 05:35:07 10° NNW 05:40:18 81° WSW 05:45:28 10° SSE
ATLAS 5 CENTAUR R/B 3.4 05:37:55 10° NNW 05:43:35 48° NE 05:49:47 10° ESE
Meteor 1-19 Rocket 4.3 05:39:11 10° SSW 05:45:00 65° WNW 05:50:48 10° N
Cosmos 1607 4.4 05:39:07 10° WSW 05:45:07 47° NW 05:51:18 10° NNE
ATLAS 3B R/B 3.0 05:37:47 10° SSW 05:45:12 82° SE 05:52:20 10° NE
Tiangong 1 1.9 05:43:14 12° WSW 05:45:17 28° SSW 05:47:39 10° SE
CZ-4B R/B 3.5 05:40:29 10° N 05:45:26 42° WNW 05:50:25 10° SW
Meteor 2-4 Rocket 3.7 05:42:33 10° SSW 05:48:05 84° W 05:53:51 10° N
CZ-4C R/B 4.4 05:45:23 10° NW 05:48:56 16° N 05:52:45 10° NNE
CZ-3 R/B 3.7 05:39:08 10° WSW 05:50:52 24° SSW 05:55:46 10° SE
Meteor 1-4 Rocket 3.3 05:53:14 10° NNW 05:56:17 29° W 05:59:19 10° SSW
Thor Agena Rocket 4.4 05:51:42 10° SSE 05:56:51 59° ENE 06:02:04 10° N
Cosmos 371 Rocket 4.0 05:52:45 10° NW 05:57:05 33° WSW 06:01:23 10° SSW
Okean 2 4.1 05:54:02 10° S 05:58:03 59° E 06:02:05 10° NNE
Abrixas rocket 2.6 05:55:30 10° W 05:58:43 53° NNW 06:01:55 10° ENE
Cosmos 1271 Rocket 3.2 05:54:47 10° N 05:58:45 71° ENE 06:02:45 10° SSE
Okean-O 2.6 05:54:34 10° N 05:59:01 76° WNW 06:03:26 10° SSW
